sat.trackr.live / text

‹ back to catalog

WEINA 1B

NORAD 43279 · 2018-034E

PAYLOAD ACTIVE UNKNOWN

§ Identity

Operator
Country
PRC
Launch date
2018-04-10
Launch site
JSC
Launch vehicle
Mass (kg)
RCS (m²)

External: N2YO · Heavens-Above · Gunter

§ Orbital elements

Epoch: 2026-05-25T04:26:44.172672Z

Period
107.03 min
Inclination
63.3933°
Eccentricity
0.0273198
Mean motion
13.45368707 rev/d
Perigee alt
885.3 km
Apogee alt
1,293.4 km
Semi-major
7,467.5 km
B*
-1.7846e-5
RAAN
151.0529°
Arg perigee
7.7515°
Mean anomaly
352.7604°
Rev number
39,911

§ Raw data

WEINA 1B1 43279U 18034E   26145.18523348 -.00000104  00000+0 -17846-4 0  99992 43279  63.3933 151.0529 0273198   7.7515 352.7604 13.45368707399116

JSON: /api/v1/satellites/43279 · /tle

For live sub-satellite position, see the globe view (requires WebGL).

§ Visibility from observer

Set your observer location to see the next 7 days of passes ≥ 10°. The values pass through the URL so the page stays shareable.

No JS? Fill the form by hand. The geolocation button needs JavaScript.